{"data":{"norad_id":41187,"epoch":"2026-05-25T03:19:34.792032Z","epoch_age_seconds":63350,"freshness":"FRESH","line1":"1 41187U 15081J   26145.13859713  .00000560  00000+0  15475-3 0  9996","line2":"2 41187  47.0053 291.1674 0001901 104.0259 256.0838 14.58833186556717","mean_motion":14.58833186,"eccentricity":0.0001901,"inclination_deg":47.0053,"raan_deg":291.1674,"arg_perigee_deg":104.0259,"mean_anomaly_deg":256.0838,"bstar":0.00015475,"rev_number":55671,"period_min":98.709024021339,"perigee_km":695.59906301999,"apogee_km":698.28900882984,"semimajor_km":7075.0810359249,"source":"CELESTRAK","updated_at":"2026-05-25T13:38:22.866815Z"}}